Location: Charlottesville
(38.0290°N, 78.4770°W)
Time: 12:10:26
(UTC-04:00)

Tiangong 1 - Pass Details

Date: 12 October 2017
Orbit: 293 x 320 km, 42.8° (Epoch: 19 October)

Event Time Altitude Azimuth Distance (km) Brightness Sun altitude
Rises 19:42:34 0° 292° (WNW) 2,041 6.1 -13.1°
Reaches altitude 10° 19:44:40 10° 302° (WNW) 1,205 4.5 -13.5°
Maximum altitude 19:47:10 34° 11° (N) 536 1.7 -14.0°
Enters shadow 19:47:52 28° 45° (NE) 612 1.7 -14.1°
